Location: Al Mulaqqa?ah
(24.1833°N, 32.8833°E)
Time: 12:51:50
(UTC+00:00)

YAOGAN 1 - Pass Details

Date: 26 September 2021
Orbit: 618 x 620 km, 97.9° (Epoch: 19 October)

Event Time Altitude Azimuth Distance (km) Brightness Sun altitude
Rises 17:03:37 0° 176° (S) 2,880 5.9 -19.7°
Reaches altitude 10° 17:05:49 10° 181° (S) 1,977 5.1 -20.2°
Maximum altitude 17:10:03 57° 259° (W) 733 3.2 -21.2°
Drops below altitude 10° 17:14:17 10° 338° (NNW) 1,984 5.5 -22.1°
Sets 17:16:31 0° 343° (NNW) 2,892 6.3 -22.6°
